Madison, MN

8:31 AM CDT on September 19, 2019 (GMT -0500)
Madison-Lac Qui Parle County

Weather History for KDXX - July, 2019

Change the Weather History Date:

Wednesday, July 10, 2019

  Actual Average (KAQP) Record (KAQP)
Temperature  
Mean Temperature 72 °F -  
Max Temperature 78 °F 80 °F 89 °F (2011)
Min Temperature 66 °F 59 °F 50 °F (2006)
Cooling Degree Days 7    
Growing Degree Days 22 (Base 50)    
Moisture  
Dew Point 63 °F    
Average Humidity 72    
Maximum Humidity 88    
Minimum Humidity 57    
Precipitation  
Precipitation 0.05 in - - ()
Sea Level Pressure  
Sea Level Pressure 29.91 in    
Wind  
Wind Speed 14 mph (WNW)    
Max Wind Speed 24 mph    
Max Gust Speed 37 mph    
Visibility 10 miles    
Events Rain    
Averages and records for this station are not official NWS values.
T = Trace of Precipitation, MM = Missing Value Source: NWS Daily Summary

Daily Weather History Graph

Daily Weather History Graph

Search for Another Location

Airport or City:

Astronomy

Jul. 10, 2019 Rise Set
Actual Time 5:47 AM CDT 9:11 PM CDT
Civil Twilight 5:11 AM CDT 9:48 PM CDT
Nautical Twilight 4:23 AM CDT 10:35 PM CDT
Astronomical Twilight 3:22 AM CDT 11:36 PM CDT
Moon 3:08 PM CDT (7/10) 1:40 AM CDT (7/10)
Length of Visible Light 16h 36m
Length of Day
15h 23m
Waxing Gibbous, 64% of the Moon is Illuminated
Jul 10
Waxing Gibbous
Jul 16
Full
Jul 24
Last Quarter
Jul 31
New
Aug 7
First Quarter

Hourly Weather History & Observations

Time (CDT) Temp. Dew Point Humidity Pressure Visibility Wind Dir Wind Speed Gust Speed Precip Events Conditions
12:15 AM 73.4 °F 64.4 °F 73% 29.83 in 10.0 mi West 9.2 mph - N/A   Clear
12:16 AM 73.4 °F 64.4 °F 73% 29.83 in 10.0 mi West 8.1 mph - N/A   Clear
12:35 AM 73.4 °F 62.6 °F 69% 29.83 in 10.0 mi WSW 8.1 mph - N/A   Clear
12:36 AM 73.4 °F 62.6 °F 69% 29.83 in 10.0 mi WSW 8.1 mph - N/A   Clear
12:58 AM 73.4 °F 62.6 °F 69% 29.83 in 10.0 mi WSW 8.1 mph - N/A   Clear
1:16 AM 71.6 °F 60.8 °F 69% 29.83 in 10.0 mi WSW 5.8 mph - N/A   Clear
1:35 AM 69.8 °F 60.8 °F 73% 29.84 in 10.0 mi SW 5.8 mph - N/A   Clear
1:55 AM 69.8 °F 60.8 °F 73% 29.84 in 10.0 mi SW 3.5 mph - N/A   Clear
1:56 AM 69.8 °F 60.8 °F 73% 29.84 in 10.0 mi SW 4.6 mph - N/A   Clear
2:15 AM 69.8 °F 60.8 °F 73% 29.84 in 10.0 mi WSW 8.1 mph - N/A   Clear
2:20 AM 69.8 °F 60.8 °F 73% 29.83 in 10.0 mi WSW 9.2 mph - N/A   Clear
2:37 AM 69.8 °F 60.8 °F 73% 29.82 in 10.0 mi WSW 10.4 mph - N/A   Clear
2:55 AM 69.8 °F 60.8 °F 73% 29.82 in 10.0 mi WSW 10.4 mph 16.1 mph N/A   Clear
3:15 AM 69.8 °F 59.0 °F 68% 29.82 in 10.0 mi WSW 13.8 mph 19.6 mph N/A   Clear
3:35 AM 69.8 °F 57.2 °F 64% 29.82 in 10.0 mi WSW 13.8 mph 20.7 mph N/A   Clear
3:36 AM 69.8 °F 57.2 °F 64% 29.82 in 10.0 mi WSW 15.0 mph 20.7 mph N/A   Clear
3:58 AM 68.0 °F 57.2 °F 68% 29.82 in 10.0 mi WSW 13.8 mph 21.9 mph N/A   Clear
4:17 AM 68.0 °F 57.2 °F 68% 29.81 in 10.0 mi WSW 16.1 mph 19.6 mph N/A   Clear
4:36 AM 66.2 °F 57.2 °F 73% 29.82 in 10.0 mi WSW 15.0 mph 24.2 mph N/A   Clear
4:55 AM 66.2 °F 57.2 °F 73% 29.82 in 10.0 mi WSW 12.7 mph 19.6 mph N/A   Clear
4:56 AM 66.2 °F 57.2 °F 73% 29.82 in 10.0 mi WSW 12.7 mph 19.6 mph N/A   Clear
5:15 AM 66.2 °F 57.2 °F 73% 29.82 in 10.0 mi WSW 13.8 mph 20.7 mph N/A   Clear
5:37 AM 66.2 °F 57.2 °F 73% 29.82 in 10.0 mi WSW 11.5 mph 18.4 mph N/A   Clear
5:55 AM 66.2 °F 57.2 °F 73% 29.81 in 10.0 mi WSW 15.0 mph 21.9 mph N/A   Clear
6:15 AM 66.2 °F 59.0 °F 78% 29.82 in 10.0 mi WSW 19.6 mph 27.6 mph N/A   Mostly Cloudy
6:16 AM 66.2 °F 59.0 °F 78% 29.81 in 10.0 mi WSW 17.3 mph 27.6 mph N/A   Mostly Cloudy
6:35 AM 66.2 °F 59.0 °F 78% 29.82 in 10.0 mi WSW 17.3 mph 24.2 mph N/A   Mostly Cloudy
6:36 AM 66.2 °F 59.0 °F 78% 29.82 in 10.0 mi WSW 18.4 mph 24.2 mph N/A   Mostly Cloudy
6:59 AM 66.2 °F 59.0 °F 78% 29.81 in 10.0 mi WSW 17.3 mph 25.3 mph N/A   Overcast
7:16 AM 66.2 °F 59.0 °F 78% 29.81 in 10.0 mi WSW 16.1 mph 24.2 mph N/A   Overcast
7:35 AM 66.2 °F 60.8 °F 83% 29.80 in 10.0 mi West 21.9 mph 31.1 mph N/A   Mostly Cloudy
7:36 AM 66.2 °F 60.8 °F 83% 29.80 in 10.0 mi West 21.9 mph 31.1 mph N/A   Mostly Cloudy
7:55 AM 69.8 °F 60.8 °F 73% 29.81 in 10.0 mi West 21.9 mph 29.9 mph N/A   Scattered Clouds
7:56 AM 69.8 °F 60.8 °F 73% 29.81 in 10.0 mi West 20.7 mph 29.9 mph N/A   Scattered Clouds
8:18 AM 69.8 °F 60.8 °F 73% 29.81 in 10.0 mi West 19.6 mph 28.8 mph N/A   Mostly Cloudy
8:37 AM 69.8 °F 62.6 °F 78% 29.82 in 10.0 mi West 21.9 mph 27.6 mph N/A   Overcast
8:55 AM 71.6 °F 62.6 °F 73% 29.82 in 10.0 mi West 18.4 mph 26.5 mph N/A   Overcast
8:56 AM 71.6 °F 62.6 °F 73% 29.83 in 10.0 mi West 18.4 mph 26.5 mph N/A   Overcast
9:15 AM 71.6 °F 62.6 °F 73% 29.83 in 10.0 mi West 18.4 mph 27.6 mph N/A   Overcast
9:16 AM 71.6 °F 62.6 °F 73% 29.83 in 10.0 mi West 19.6 mph 27.6 mph N/A   Overcast
9:38 AM 71.6 °F 64.4 °F 78% 29.84 in 10.0 mi West 12.7 mph 19.6 mph N/A   Overcast
9:56 AM 71.6 °F 64.4 °F 78% 29.85 in 10.0 mi West 17.3 mph 21.9 mph N/A   Overcast
10:15 AM 69.8 °F 64.4 °F 83% 29.85 in 5.0 mi West 17.3 mph 21.9 mph N/A   Drizzle
10:35 AM 69.8 °F 66.2 °F 88% 29.86 in 3.0 mi West 13.8 mph 17.3 mph N/A Rain Heavy Rain
10:36 AM 69.8 °F 66.2 °F 88% 29.86 in 3.0 mi West 13.8 mph 17.3 mph 0.01 in Rain Heavy Rain
10:55 AM 71.6 °F 68.0 °F 88% 29.87 in 10.0 mi NW 10.4 mph 20.7 mph N/A   Overcast
10:59 AM 71.6 °F 68.0 °F 88% 29.87 in 3.0 mi NW 19.6 mph 25.3 mph N/A   Overcast
11:16 AM 71.6 °F 68.0 °F 88% 29.88 in 10.0 mi NW 17.3 mph 21.9 mph 0.01 in   Overcast
11:36 AM 73.4 °F 66.2 °F 78% 29.89 in 10.0 mi WNW 17.3 mph 23.0 mph 0.01 in   Overcast
11:55 AM 73.4 °F 66.2 °F 78% 29.89 in 10.0 mi NW 17.3 mph 27.6 mph 0.01 in   Overcast
12:15 PM 71.6 °F 64.4 °F 78% 29.90 in 7.0 mi NW 21.9 mph 36.8 mph N/A   Overcast
12:19 PM 71.6 °F 64.4 °F 78% 29.90 in 7.0 mi NW 16.1 mph 36.8 mph N/A   Overcast
12:37 PM 75.2 °F 64.4 °F 69% 29.91 in 10.0 mi NW 23.0 mph 28.8 mph N/A   Mostly Cloudy
12:56 PM 75.2 °F 64.4 °F 69% 29.91 in 10.0 mi NW 21.9 mph 28.8 mph N/A   Mostly Cloudy
1:15 PM 73.4 °F 66.2 °F 78% 29.92 in 10.0 mi WNW 17.3 mph 23.0 mph N/A   Scattered Clouds
1:16 PM 73.4 °F 66.2 °F 78% 29.92 in 10.0 mi WNW 20.7 mph - N/A   Scattered Clouds
1:35 PM 71.6 °F 66.2 °F 83% 29.93 in 7.0 mi NW 17.3 mph 32.2 mph N/A Rain Heavy Rain
1:36 PM 71.6 °F 66.2 °F 83% 29.93 in 7.0 mi NW 17.3 mph 32.2 mph 0.03 in Rain Heavy Rain
1:58 PM 73.4 °F 66.2 °F 78% 29.94 in 10.0 mi NW 21.9 mph 28.8 mph N/A   Mostly Cloudy
2:16 PM 75.2 °F 66.2 °F 73% 29.94 in 10.0 mi NW 19.6 mph 26.5 mph N/A   Mostly Cloudy
2:35 PM 77.0 °F 66.2 °F 69% 29.94 in 10.0 mi NW 19.6 mph 27.6 mph N/A   Mostly Cloudy
2:36 PM 77.0 °F 66.2 °F 69% 29.94 in 10.0 mi NW 19.6 mph 27.6 mph N/A   Mostly Cloudy
2:55 PM 75.2 °F 64.4 °F 69% 29.94 in 10.0 mi NNW 21.9 mph 31.1 mph N/A   Mostly Cloudy
2:56 PM 75.2 °F 64.4 °F 69% 29.94 in 10.0 mi NNW 21.9 mph 31.1 mph N/A   Mostly Cloudy
3:15 PM 75.2 °F 62.6 °F 65% 29.95 in 10.0 mi NW 18.4 mph 35.7 mph N/A   Overcast
3:19 PM 75.2 °F 62.6 °F 65% 29.95 in 10.0 mi NNW 23.0 mph 33.4 mph N/A   Overcast
3:38 PM 75.2 °F 62.6 °F 65% 29.96 in 10.0 mi NW 20.7 mph 28.8 mph N/A   Overcast
3:55 PM 77.0 °F 62.6 °F 61% 29.97 in 10.0 mi NW 20.7 mph 32.2 mph N/A   Mostly Cloudy
4:15 PM 77.0 °F 64.4 °F 65% 29.97 in 10.0 mi NW 19.6 mph 32.2 mph N/A   Scattered Clouds
4:16 PM 78.8 °F 64.4 °F 61% 29.97 in 10.0 mi NW 18.4 mph 32.2 mph N/A   Scattered Clouds
4:35 PM 75.2 °F 64.4 °F 69% 29.98 in 10.0 mi NNW 19.6 mph 26.5 mph N/A   Mostly Cloudy
4:58 PM 77.0 °F 62.6 °F 61% 29.99 in 10.0 mi NNW 19.6 mph 34.5 mph N/A   Overcast
5:16 PM 77.0 °F 64.4 °F 65% 29.99 in 10.0 mi NNW 15.0 mph 29.9 mph N/A   Mostly Cloudy
5:35 PM 77.0 °F 64.4 °F 65% 29.99 in 10.0 mi NNW 19.6 mph 28.8 mph N/A   Mostly Cloudy
5:36 PM 77.0 °F 64.4 °F 65% 29.99 in 10.0 mi NNW 20.7 mph 28.8 mph N/A   Mostly Cloudy
5:55 PM 77.0 °F 64.4 °F 65% 30.00 in 10.0 mi NNW 16.1 mph 25.3 mph N/A   Mostly Cloudy
5:56 PM 77.0 °F 64.4 °F 65% 30.00 in 10.0 mi NNW 16.1 mph - N/A   Mostly Cloudy
6:19 PM 77.0 °F 62.6 °F 61% 29.99 in 10.0 mi NNW 18.4 mph 26.5 mph N/A   Mostly Cloudy
6:37 PM 78.8 °F 64.4 °F 61% 30.00 in 10.0 mi NNW 17.3 mph 26.5 mph N/A   Scattered Clouds
6:55 PM 77.0 °F 62.6 °F 61% 30.01 in 10.0 mi NNW 23.0 mph 31.1 mph N/A   Mostly Cloudy
7:15 PM 78.8 °F 62.6 °F 57% 30.02 in 10.0 mi NNW 21.9 mph 27.6 mph N/A   Mostly Cloudy
7:16 PM 78.8 °F 62.6 °F 57% 30.02 in 10.0 mi NNW 24.2 mph 29.9 mph N/A   Mostly Cloudy
7:35 PM 77.0 °F 62.6 °F 61% 30.03 in 10.0 mi NNW 21.9 mph 32.2 mph N/A   Scattered Clouds
7:39 PM 77.0 °F 62.6 °F 61% 30.03 in 10.0 mi NNW 19.6 mph 32.2 mph N/A   Scattered Clouds
7:58 PM 77.0 °F 60.8 °F 57% 30.03 in 10.0 mi NNW 17.3 mph 24.2 mph N/A   Clear
8:15 PM 75.2 °F 62.6 °F 65% 30.04 in 10.0 mi NNW 12.7 mph 21.9 mph N/A   Clear
8:35 PM 75.2 °F 62.6 °F 65% 30.04 in 10.0 mi NNW 13.8 mph 20.7 mph N/A   Clear
8:36 PM 75.2 °F 62.6 °F 65% 30.04 in 10.0 mi NNW 13.8 mph 20.7 mph N/A   Clear
8:55 PM 73.4 °F 62.6 °F 69% 30.04 in 10.0 mi NNW 11.5 mph - N/A   Clear
9:18 PM 73.4 °F 62.6 °F 69% 30.05 in 10.0 mi NNW 11.5 mph - N/A   Clear
9:37 PM 71.6 °F 62.6 °F 73% 30.06 in 10.0 mi NNW 11.5 mph - N/A   Clear
9:56 PM 71.6 °F 62.6 °F 73% 30.07 in 10.0 mi NW 10.4 mph - N/A   Clear
10:15 PM 71.6 °F 62.6 °F 73% 30.08 in 10.0 mi NW 9.2 mph - N/A   Clear
10:16 PM 71.6 °F 62.6 °F 73% 30.08 in 10.0 mi NW 9.2 mph - N/A   Clear
10:35 PM 69.8 °F 62.6 °F 78% 30.08 in 10.0 mi NNW 9.2 mph - N/A   Clear
10:57 PM 69.8 °F 62.6 °F 78% 30.08 in 10.0 mi NNW 10.4 mph - N/A   Clear
11:16 PM 69.8 °F 62.6 °F 78% 30.08 in 10.0 mi NW 9.2 mph - N/A   Clear
11:35 PM 68.0 °F 62.6 °F 83% 30.08 in 10.0 mi NW 6.9 mph - N/A   Clear
11:36 PM 68.0 °F 62.6 °F 83% 30.08 in 10.0 mi NW 6.9 mph - N/A   Clear
11:55 PM 68.0 °F 62.6 °F 83% 30.08 in 10.0 mi NNW 8.1 mph - N/A   Clear
11:56 PM 68.0 °F 62.6 °F 83% 30.08 in 10.0 mi NNW 9.2 mph - N/A   Clear